Regional Weather Roundup
Issued by NWS Charleston, WV

Home | Current Version | Previous Version | Graphics & Text | Print | Product List | Glossary On
Versions: 1 2 3 4 5 6 7 8 9 10 11 12 13 14 15 16 17 18 19 20 21 22 23 24 25 26 27 28 29 30 31 32 33 34 35 36 37 38 39 40 41 42 43 44 45 46 47 48 49 50
000
ASUS41 KRLX 200610
RWRRLX
West Virginia Regional Weather Roundup
National Weather Service Charleston WV
100 AM EST SAT DEC 20 2014

Note: "fair" indicates few or no clouds below 12,000 feet with no
significant weather and/or obstructions to visibility.

WVZ003-200700-
Northern Panhandle of West Virginia

CITY           SKY/WX    TMP DP  RH WIND       PRES   REMARKS
WHEELING       CLOUDY    29  19  66 CALM      30.24S
$$

WVZ009-200700-
Northwest West Virginia

CITY           SKY/WX    TMP DP  RH WIND       PRES   REMARKS
PARKERSBURG    CLOUDY    30  22  72 SE3       30.28F
$$

WVZ006-200700-
Western West Virginia

CITY           SKY/WX    TMP DP  RH WIND       PRES   REMARKS
HUNTINGTON     CLOUDY    28  22  78 CALM      30.25S
$$

WVZ015-200700-
West Central West Virginia

CITY           SKY/WX    TMP DP  RH WIND       PRES   REMARKS
CHARLESTON     CLOUDY    30  21  69 E6        30.24F
$$

WVZ022-031-200700-
North Central West Virginia

CITY           SKY/WX    TMP DP  RH WIND       PRES   REMARKS
CLARKSBURG     CLOUDY    29  21  72 CALM      30.24F
MORGANTOWN     CLOUDY    30  18  60 CALM      30.24F
$$

WVZ025-035-042-045-200700-
Southern West Virginia

CITY           SKY/WX    TMP DP  RH WIND       PRES   REMARKS
BECKLEY        CLOUDY    24  20  84 E3        30.15F
LOGAN            N/A     27  23  86 CALM      30.19S
BLUEFIELD      CLOUDY    26  21  81 E3        30.14F
LEWISBURG      MOCLDY    23  20  88 CALM      30.18S
$$

WVZ047-200700-
Northern Mountains of West Virginia

CITY           SKY/WX    TMP DP  RH WIND       PRES   REMARKS
ELKINS         CLOUDY    25  22  88 CALM      30.20F
$$

WVZ052-200700-
Eastern Panhandle of West Virginia

CITY           SKY/WX    TMP DP  RH WIND       PRES   REMARKS
MARTINSBURG    CLEAR     26  18  71 CALM      30.24F
PETERSBURG     CLEAR     24  22  91 CALM      30.26S
$$


USA.gov is the U.S. government's official web portal to all federal, state and local government web resources and services.